| time (UTC) | temp F | wind direction | speed MPH | gust MPH | rain 1hr in | rain 24hr in | rain mn in | humidity % | barometer mb |
| 20260504202703 | 60 | 174 | 5.0 | 9.0 | 0.00 | 0.00 | 0.00 | 72 | 1011.5 |
| 20260504202020 | 60 | 184 | 4.0 | 10.0 | 0.00 | 0.00 | 0.00 | 73 | 1011.8 |
| 20260504200903 | 60 | 186 | 5.0 | 11.0 | 0.00 | 0.00 | 0.00 | 72 | 1011.6 |
| 20260504200220 | 59 | 190 | 6.0 | 11.0 | 0.00 | 0.00 | 0.00 | 73 | 1011.7 |
| 20260504195403 | 59 | 183 | 5.0 | 9.0 | 0.00 | 0.00 | 0.00 | 74 | 1011.7 |
| 20260504194503 | 59 | 181 | 5.0 | 11.0 | 0.00 | 0.00 | 0.00 | 75 | 1011.8 |
| 20260504193603 | 60 | 184 | 5.0 | 10.0 | 0.00 | 0.00 | 0.00 | 73 | 1011.9 |
| 20260504192703 | 60 | 183 | 5.0 | 10.0 | 0.00 | 0.00 | 0.00 | 73 | 1012.2 |
| 20260504191803 | 60 | 184 | 5.0 | 10.0 | 0.00 | 0.00 | 0.00 | 74 | 1012.1 |
| 20260504190903 | 60 | 187 | 5.0 | 10.0 | 0.00 | 0.00 | 0.00 | 72 | 1012.2 |
| 20260504190003 | 60 | 185 | 5.0 | 9.0 | 0.00 | 0.00 | 0.00 | 72 | 1012.5 |
| 20260504185403 | 60 | 181 | 5.0 | 9.0 | 0.00 | 0.00 | 0.00 | 72 | 1012.7 |
| 20260504184503 | 61 | 175 | 4.0 | 9.0 | 0.00 | 0.00 | 0.00 | 71 | 1012.7 |
| 20260504183603 | 60 | 185 | 4.0 | 10.0 | 0.00 | 0.00 | 0.00 | 71 | 1012.6 |
| 20260504182703 | 60 | 176 | 4.0 | 8.0 | 0.00 | 0.00 | 0.00 | 71 | 1012.7 |
| 20260504181803 | 60 | 181 | 4.0 | 9.0 | 0.00 | 0.00 | 0.00 | 72 | 1012.9 |
| 20260504180903 | 60 | 169 | 4.0 | 9.0 | 0.00 | 0.00 | 0.00 | 72 | 1012.9 |
| 20260504180221 | 60 | 172 | 4.0 | 10.0 | 0.00 | 0.00 | 0.00 | 72 | 1013.1 |
| 20260504175403 | 60 | 171 | 3.0 | 10.0 | 0.00 | 0.00 | 0.00 | 71 | 1013.1 |
| 20260504174503 | 60 | 173 | 3.0 | 7.0 | 0.00 | 0.00 | 0.00 | 70 | 1013.3 |
| 20260504173818 | 60 | 175 | 3.0 | 7.0 | 0.00 | 0.00 | 0.00 | 71 | 1013.1 |
| 20260504172919 | 60 | 174 | 4.0 | 7.0 | 0.00 | 0.00 | 0.00 | 72 | 1013.2 |
| 20260504171803 | 60 | 174 | 3.0 | 7.0 | 0.00 | 0.00 | 0.00 | 72 | 1013.4 |
| 20260504170903 | 60 | 191 | 4.0 | 9.0 | 0.00 | 0.00 | 0.00 | 72 | 1013.3 |
| 20260504150903 | 60 | 183 | 3.0 | 7.0 | 0.00 | 0.00 | 0.00 | 64 | 1014.7 |
| 20260504141121 | 60 | 202 | 3.0 | 7.0 | 0.00 | 0.00 | 0.00 | 59 | 1014.7 |
| 20260504130219 | 57 | 200 | 3.0 | 9.0 | 0.00 | 0.00 | 0.00 | 64 | 1015.5 |
| 20260504081803 | 51 | 225 | 2.0 | 6.0 | 0.00 | 0.00 | 0.00 | 62 | 1014.8 |
| 20260504081120 | 51 | 214 | 2.0 | 6.0 | 0.00 | 0.00 | 0.00 | 60 | 1014.8 |
| 20260504050003 | 52 | 187 | 2.0 | 7.0 | 0.00 | 0.00 | 0.00 | 56 | 1014.3 |
| 20260504045403 | 52 | 198 | 2.0 | 4.0 | 0.00 | 0.00 | 0.00 | 56 | 1014.3 |
| 20260504044503 | 52 | 199 | 2.0 | 4.0 | 0.00 | 0.00 | 0.00 | 57 | 1014.2 |
| 20260504043603 | 52 | 192 | 1.0 | 7.0 | 0.00 | 0.00 | 0.00 | 63 | 1014.1 |
| 20260504042703 | 52 | 195 | 2.0 | 4.0 | 0.00 | 0.00 | 0.00 | 64 | 1014.0 |
| 20260504041803 | 52 | 189 | 1.0 | 3.0 | 0.00 | 0.00 | 0.00 | 65 | 1014.0 |
| 20260504040903 | 52 | 185 | 1.0 | 3.0 | 0.00 | 0.00 | 0.00 | 66 | 1014.1 |
| 20260504040003 | 53 | 189 | 1.0 | 3.0 | 0.00 | 0.00 | 0.00 | 58 | 1014.0 |
| 20260504035403 | 53 | 194 | 2.0 | 4.0 | 0.00 | 0.00 | 0.00 | 58 | 1014.0 |
| 20260504034503 | 53 | 211 | 2.0 | 4.0 | 0.00 | 0.00 | 0.00 | 58 | 1013.9 |
| 20260504033821 | 53 | 200 | 2.0 | 3.0 | 0.00 | 0.00 | 0.00 | 59 | 1013.9 |
| 20260504032703 | 53 | 210 | 2.0 | 4.0 | 0.00 | 0.00 | 0.00 | 59 | 1014.0 |
| 20260504031803 | 53 | 193 | 2.0 | 4.0 | 0.00 | 0.00 | 0.00 | 57 | 1013.6 |
| 20260504030903 | 53 | 193 | 2.0 | 4.0 | 0.00 | 0.00 | 0.00 | 61 | 1013.5 |
| 20260504030004 | 53 | 203 | 2.0 | 4.0 | 0.00 | 0.00 | 0.00 | 65 | 1013.8 |
| 20260504025403 | 53 | 199 | 2.0 | 4.0 | 0.00 | 0.00 | 0.00 | 68 | 1013.7 |
| 20260504024503 | 53 | 177 | 1.0 | 4.0 | 0.00 | 0.00 | 0.00 | 65 | 1013.9 |
| 20260504023603 | 54 | 179 | 1.0 | 2.0 | 0.00 | 0.00 | 0.00 | 51 | 1013.8 |
| 20260504022703 | 53 | 193 | 1.0 | 2.0 | 0.00 | 0.00 | 0.00 | 52 | 1013.7 |
| 20260504021803 | 54 | 206 | 1.0 | 3.0 | 0.00 | 0.00 | 0.00 | 52 | 1013.9 |
| 20260504020903 | 53 | 193 | 2.0 | 3.0 | 0.00 | 0.00 | 0.00 | 59 | 1013.7 |
| 20260504020221 | 53 | 195 | 2.0 | 4.0 | 0.00 | 0.00 | 0.00 | 64 | 1013.8 |
| 20260504015403 | 53 | 190 | 1.0 | 3.0 | 0.00 | 0.00 | 0.00 | 69 | 1013.6 |
| 20260504014503 | 52 | 187 | 2.0 | 4.0 | 0.00 | 0.00 | 0.00 | 73 | 1013.7 |
| 20260504013603 | 54 | 173 | 1.0 | 2.0 | 0.00 | 0.00 | 0.00 | 63 | 1013.6 |
| 20260504012703 | 55 | 167 | 1.0 | 1.0 | 0.00 | 0.00 | 0.00 | 44 | 1013.5 |
| 20260504011803 | 55 | 171 | 1.0 | 2.0 | 0.00 | 0.00 | 0.00 | 42 | 1013.4 |
| 20260504010903 | 55 | 167 | 1.0 | 2.0 | 0.00 | 0.00 | 0.00 | 42 | 1013.2 |
| 20260504010003 | 55 | 168 | 1.0 | 2.0 | 0.00 | 0.00 | 0.00 | 41 | 1013.0 |
| 20260504005403 | 55 | 162 | 0.0 | 1.0 | 0.00 | 0.00 | 0.00 | 40 | 1013.0 |
| 20260504004503 | 56 | 168 | 1.0 | 2.0 | 0.00 | 0.00 | 0.00 | 39 | 1013.1 |
| 20260504003603 | 56 | 149 | 0.0 | 2.0 | 0.00 | 0.00 | 0.00 | 34 | 1012.7 |
| 20260504002703 | 56 | 192 | 1.0 | 2.0 | 0.00 | 0.00 | 0.00 | 31 | 1012.6 |
| 20260504001803 | 57 | 228 | 1.0 | 4.0 | 0.00 | 0.00 | 0.00 | 31 | 1012.4 |
| 20260504000903 | 57 | 224 | 1.0 | 6.0 | 0.00 | 0.00 | 0.00 | 31 | 1012.3 |
| 20260504000004 | 58 | 302 | 2.0 | 7.0 | 0.00 | 0.00 | 0.00 | 30 | 1012.3 |
| 20260503235403 | 58 | 289 | 2.0 | 7.0 | 0.00 | 0.00 | 0.00 | 30 | 1012.2 |
| 20260503234503 | 58 | 275 | 2.0 | 8.0 | 0.00 | 0.00 | 0.00 | 29 | 1011.9 |
| 20260503233603 | 58 | 281 | 3.0 | 8.0 | 0.00 | 0.00 | 0.00 | 29 | 1011.9 |
| 20260503232703 | 59 | 283 | 4.0 | 10.0 | 0.00 | 0.00 | 0.00 | 28 | 1012.0 |
| 20260503232018 | 60 | 298 | 5.0 | 13.0 | 0.00 | 0.00 | 0.00 | 26 | 1011.9 |
| 20260503230903 | 60 | 289 | 5.0 | 16.0 | 0.00 | 0.00 | 0.00 | 27 | 1011.8 |
| 20260503230003 | 60 | 288 | 4.0 | 14.0 | 0.00 | 0.00 | 0.00 | 26 | 1011.7 |
| 20260503225403 | 60 | 298 | 4.0 | 11.0 | 0.00 | 0.00 | 0.00 | 26 | 1011.5 |
| 20260503224503 | 60 | 289 | 6.0 | 14.0 | 0.00 | 0.00 | 0.00 | 26 | 1011.6 |
| 20260503223603 | 60 | 277 | 5.0 | 14.0 | 0.00 | 0.00 | 0.00 | 25 | 1011.8 |
| 20260503222703 | 60 | 285 | 5.0 | 14.0 | 0.00 | 0.00 | 0.00 | 25 | 1011.5 |
| 20260503221803 | 60 | 289 | 5.0 | 14.0 | 0.00 | 0.00 | 0.00 | 26 | 1011.5 |
| 20260503220903 | 61 | 280 | 4.0 | 11.0 | 0.00 | 0.00 | 0.00 | 26 | 1011.8 |
| 20260503220003 | 60 | 282 | 7.0 | 15.0 | 0.00 | 0.00 | 0.00 | 26 | 1011.6 |
| 20260503215620 | 60 | 281 | 6.0 | 15.0 | 0.00 | 0.00 | 0.00 | 26 | 1011.5 |
| 20260503214503 | 60 | 296 | 7.0 | 16.0 | 0.00 | 0.00 | 0.00 | 27 | 1011.6 |
| 20260503213603 | 60 | 304 | 6.0 | 14.0 | 0.00 | 0.00 | 0.00 | 27 | 1011.5 |
| 20260503212917 | 60 | 307 | 6.0 | 16.0 | 0.00 | 0.00 | 0.00 | 26 | 1011.4 |
| 20260503211803 | 60 | 263 | 6.0 | 16.0 | 0.00 | 0.00 | 0.00 | 27 | 1011.4 |
| 20260503210903 | 60 | 306 | 6.0 | 15.0 | 0.00 | 0.00 | 0.00 | 27 | 1011.3 |
| 20260503210003 | 59 | 281 | 6.0 | 15.0 | 0.00 | 0.00 | 0.00 | 27 | 1011.2 |
| 20260503205403 | 60 | 281 | 6.0 | 15.0 | 0.00 | 0.00 | 0.00 | 27 | 1011.3 |
| 20260503204503 | 60 | 281 | 6.0 | 15.0 | 0.00 | 0.00 | 0.00 | 27 | 1011.1 |
| 20260503203820 | 60 | 287 | 5.0 | 13.0 | 0.00 | 0.00 | 0.00 | 29 | 1011.3 |